Time,TemperatureF,DewpointF,PressureIn,WindDirection,WindDirectionDegrees,WindSpeedMPH,WindSpeedGustMPH,Humidity,HourlyPrecipIn,Conditions,Clouds,dailyrainin,SolarRadiationWatts/m^2,SoftwareType,DateUTC
2013-07-03 00:01:00,81.0,72.0,-100.00,South,185,5.0,14.0,73,0.00,,,0.04,151.000000,,2013-07-03 00:01:00,
2013-07-03 00:33:00,80.0,73.0,-100.00,SSW,197,4.0,10.0,78,0.00,,,0.04,57.000000,,2013-07-03 00:33:00,
2013-07-03 00:44:00,80.0,73.0,-100.00,SSW,197,4.0,10.0,78,0.00,,,0.04,57.000000,,2013-07-03 00:44:00,
2013-07-03 00:52:00,80.0,73.0,-100.00,SSW,197,4.0,10.0,78,0.00,,,0.04,57.000000,,2013-07-03 00:52:00,
2013-07-03 01:01:00,80.0,73.0,-100.00,SSW,197,4.0,10.0,78,0.00,,,0.04,57.000000,,2013-07-03 01:01:00,
2013-07-03 01:43:00,79.0,72.0,-100.00,SW,217,4.0,12.0,79,0.00,,,0.04,6.000000,,2013-07-03 01:43:00,
2013-07-03 02:06:00,79.0,72.0,-100.00,SW,217,4.0,12.0,79,0.00,,,0.04,6.000000,,2013-07-03 02:06:00,
2013-07-03 02:40:00,79.0,72.0,-100.00,SW,222,5.0,12.0,78,0.00,,,0.04,0.000000,,2013-07-03 02:40:00,
2013-07-03 02:46:00,79.0,72.0,-100.00,SW,222,5.0,12.0,78,0.00,,,0.04,0.000000,,2013-07-03 02:46:00,
2013-07-03 03:00:00,79.0,72.0,-100.00,SW,222,5.0,12.0,78,0.00,,,0.04,0.000000,,2013-07-03 03:00:00,
2013-07-03 03:49:00,78.0,72.0,-100.00,SW,234,4.0,10.0,81,0.00,,,0.04,0.000000,,2013-07-03 03:49:00,
2013-07-03 03:59:00,78.0,72.0,-100.00,SW,234,4.0,10.0,81,0.00,,,0.04,0.000000,,2013-07-03 03:59:00,
2013-07-03 04:02:00,78.0,72.0,-100.00,SW,234,4.0,10.0,81,0.00,,,0.04,0.000000,,2013-07-03 04:02:00,
2013-07-03 04:34:00,78.0,70.0,-100.00,SW,215,5.0,11.0,76,0.00,,,0.04,0.000000,,2013-07-03 04:34:00,
2013-07-03 04:43:00,78.0,70.0,-100.00,SW,215,5.0,11.0,76,0.00,,,0.04,0.000000,,2013-07-03 04:43:00,
2013-07-03 04:52:00,78.0,70.0,-100.00,SW,215,5.0,11.0,76,0.00,,,0.04,0.000000,,2013-07-03 04:52:00,
2013-07-03 05:02:00,78.0,70.0,-100.00,SW,215,5.0,11.0,76,0.00,,,0.04,0.000000,,2013-07-03 05:02:00,
2013-07-03 05:07:00,76.0,69.0,-100.00,SW,225,3.0,13.0,80,0.00,,,0.04,0.000000,,2013-07-03 05:07:00,
2013-07-03 05:41:00,76.0,69.0,-100.00,SW,225,3.0,13.0,80,0.00,,,0.04,0.000000,,2013-07-03 05:41:00,
2013-07-03 05:48:00,76.0,69.0,-100.00,SW,225,3.0,13.0,80,0.00,,,0.04,0.000000,,2013-07-03 05:48:00,
2013-07-03 06:01:00,76.0,69.0,-100.00,SW,225,3.0,13.0,80,0.00,,,0.04,0.000000,,2013-07-03 06:01:00,
2013-07-03 06:07:00,76.0,70.0,-100.00,SW,230,5.0,10.0,81,0.00,,,0.03,0.000000,,2013-07-03 06:07:00,
2013-07-03 06:40:00,76.0,70.0,-100.00,SW,230,5.0,10.0,81,0.00,,,0.03,0.000000,,2013-07-03 06:40:00,
2013-07-03 06:58:00,76.0,70.0,-100.00,SW,230,5.0,10.0,81,0.00,,,0.03,0.000000,,2013-07-03 06:58:00,
2013-07-03 07:07:00,75.0,69.0,-100.00,SW,225,5.0,12.0,83,0.00,,,0.03,0.000000,,2013-07-03 07:07:00,
2013-07-03 07:40:00,75.0,69.0,-100.00,SW,225,5.0,12.0,83,0.00,,,0.03,0.000000,,2013-07-03 07:40:00,
2013-07-03 07:48:00,75.0,69.0,-100.00,SW,225,5.0,12.0,83,0.00,,,0.03,0.000000,,2013-07-03 07:48:00,
2013-07-03 08:02:00,75.0,69.0,-100.00,SW,225,5.0,12.0,83,0.00,,,0.03,0.000000,,2013-07-03 08:02:00,
2013-07-03 08:38:00,74.0,69.0,-100.00,WSW,238,4.0,11.0,84,0.00,,,0.03,0.000000,,2013-07-03 08:38:00,
2013-07-03 08:58:00,74.0,69.0,-100.00,WSW,238,4.0,11.0,84,0.00,,,0.03,0.000000,,2013-07-03 08:58:00,
2013-07-03 09:48:00,74.0,69.0,-100.00,WSW,239,4.0,11.0,85,0.00,,,0.03,0.000000,,2013-07-03 09:48:00,
2013-07-03 09:58:00,74.0,69.0,-100.00,WSW,239,4.0,11.0,85,0.00,,,0.03,0.000000,,2013-07-03 09:58:00,
2013-07-03 10:06:00,74.0,69.0,-100.00,WSW,239,4.0,11.0,85,0.00,,,0.03,0.000000,,2013-07-03 10:06:00,
2013-07-03 10:47:00,74.0,69.0,-100.00,WSW,249,3.0,7.0,85,0.00,,,0.03,13.000000,,2013-07-03 10:47:00,
2013-07-03 11:07:00,75.0,70.0,-100.00,WSW,244,4.0,7.0,84,0.00,,,0.00,48.000000,,2013-07-03 11:07:00,
2013-07-03 11:46:00,75.0,70.0,-100.00,WSW,244,4.0,7.0,84,0.00,,,0.00,48.000000,,2013-07-03 11:46:00,
2013-07-03 11:59:00,75.0,70.0,-100.00,WSW,244,4.0,7.0,84,0.00,,,0.00,48.000000,,2013-07-03 11:59:00,
2013-07-03 12:07:00,76.0,70.0,-100.00,SW,222,5.0,12.0,82,0.00,,,0.00,119.000000,,2013-07-03 12:07:00,
2013-07-03 12:38:00,76.0,70.0,-100.00,SW,222,5.0,12.0,82,0.00,,,0.00,119.000000,,2013-07-03 12:38:00,
2013-07-03 12:47:00,76.0,70.0,-100.00,SW,222,5.0,12.0,82,0.00,,,0.00,119.000000,,2013-07-03 12:47:00,
2013-07-03 13:07:00,76.0,70.0,-100.00,WSW,238,5.0,13.0,81,0.00,,,0.00,181.000000,,2013-07-03 13:07:00,
2013-07-03 13:56:00,76.0,70.0,-100.00,WSW,238,5.0,13.0,81,0.00,,,0.00,181.000000,,2013-07-03 13:56:00,
2013-07-03 14:56:00,80.0,71.0,-100.00,SW,227,7.0,12.0,75,0.00,,,0.00,316.000000,,2013-07-03 14:56:00,
2013-07-03 15:06:00,80.0,71.0,-100.00,SW,227,7.0,12.0,75,0.00,,,0.00,316.000000,,2013-07-03 15:06:00,
2013-07-03 15:07:00,84.0,73.0,-100.00,WSW,238,6.0,15.0,69,0.00,,,0.00,742.000000,,2013-07-03 15:07:00,
2013-07-03 15:38:00,84.0,73.0,-100.00,WSW,238,6.0,15.0,69,0.00,,,0.00,742.000000,,2013-07-03 15:38:00,
2013-07-03 15:49:00,84.0,73.0,-100.00,WSW,238,6.0,15.0,69,0.00,,,0.00,742.000000,,2013-07-03 15:49:00,
2013-07-03 15:57:00,84.0,73.0,-100.00,WSW,238,6.0,15.0,69,0.00,,,0.00,742.000000,,2013-07-03 15:57:00,
2013-07-03 16:07:00,82.0,72.0,-100.00,WSW,254,7.0,13.0,71,0.00,,,0.00,418.000000,,2013-07-03 16:07:00,
2013-07-03 16:40:00,82.0,72.0,-100.00,WSW,254,7.0,13.0,71,0.00,,,0.00,418.000000,,2013-07-03 16:40:00,
2013-07-03 16:47:00,82.0,72.0,-100.00,WSW,254,7.0,13.0,71,0.00,,,0.00,418.000000,,2013-07-03 16:47:00,
2013-07-03 17:01:00,82.0,72.0,-100.00,WSW,254,7.0,13.0,71,0.00,,,0.00,418.000000,,2013-07-03 17:01:00,
2013-07-03 17:43:00,85.0,72.0,-100.00,WSW,244,7.0,15.0,66,0.00,,,0.00,571.000000,,2013-07-03 17:43:00,
2013-07-03 17:50:00,85.0,72.0,-100.00,WSW,244,7.0,15.0,66,0.00,,,0.00,571.000000,,2013-07-03 17:50:00,
2013-07-03 17:56:00,85.0,72.0,-100.00,WSW,244,7.0,15.0,66,0.00,,,0.00,571.000000,,2013-07-03 17:56:00,
2013-07-03 18:39:00,87.0,73.0,-100.00,WSW,252,6.0,20.0,63,0.00,,,0.00,725.000000,,2013-07-03 18:39:00,
2013-07-03 18:47:00,87.0,73.0,-100.00,WSW,252,6.0,20.0,63,0.00,,,0.00,725.000000,,2013-07-03 18:47:00,
2013-07-03 18:59:00,87.0,73.0,-100.00,WSW,252,6.0,20.0,63,0.00,,,0.00,725.000000,,2013-07-03 18:59:00,
2013-07-03 19:38:00,86.0,73.0,-100.00,SW,223,6.0,15.0,65,0.00,,,0.00,755.000000,,2013-07-03 19:38:00,
2013-07-03 19:49:00,86.0,73.0,-100.00,SW,223,6.0,15.0,65,0.00,,,0.00,755.000000,,2013-07-03 19:49:00,
2013-07-03 19:58:00,86.0,73.0,-100.00,SW,223,6.0,15.0,65,0.00,,,0.00,755.000000,,2013-07-03 19:58:00,
2013-07-03 20:06:00,86.0,73.0,-100.00,SW,223,6.0,15.0,65,0.00,,,0.00,755.000000,,2013-07-03 20:06:00,
2013-07-03 20:38:00,84.0,74.0,-100.00,SW,216,6.0,10.0,71,0.00,,,0.00,347.000000,,2013-07-03 20:38:00,
2013-07-03 20:47:00,84.0,74.0,-100.00,SW,216,6.0,10.0,71,0.00,,,0.00,347.000000,,2013-07-03 20:47:00,
2013-07-03 21:45:00,82.0,73.0,-100.00,SW,214,4.0,12.0,75,0.00,,,0.00,368.000000,,2013-07-03 21:45:00,
2013-07-03 21:55:00,82.0,73.0,-100.00,SW,214,4.0,12.0,75,0.00,,,0.00,368.000000,,2013-07-03 21:55:00,
2013-07-03 22:06:00,82.0,73.0,-100.00,SW,214,4.0,12.0,75,0.00,,,0.00,368.000000,,2013-07-03 22:06:00,
2013-07-03 22:38:00,83.0,74.0,-100.00,SSW,213,3.0,10.0,74,0.00,,,0.00,182.000000,,2013-07-03 22:38:00,
2013-07-03 22:47:00,83.0,74.0,-100.00,SSW,213,3.0,10.0,74,0.00,,,0.00,182.000000,,2013-07-03 22:47:00,
2013-07-03 22:57:00,83.0,74.0,-100.00,SSW,213,3.0,10.0,74,0.00,,,0.00,182.000000,,2013-07-03 22:57:00,
2013-07-03 23:40:00,85.0,74.0,-100.00,SW,225,4.0,10.0,69,0.00,,,0.00,269.000000,,2013-07-03 23:40:00,
2013-07-03 23:46:00,85.0,74.0,-100.00,SW,225,4.0,10.0,69,0.00,,,0.00,269.000000,,2013-07-03 23:46:00,
2013-07-03 23:56:00,85.0,74.0,-100.00,SW,225,4.0,10.0,69,0.00,,,0.00,269.000000,,2013-07-03 23:56:00,